Location: Canet
(43.3261°N, 5.3723°E)
Time: 19:16:54
(UTC+00:00)

COSMOS 2455 - Pass Details

Date: 24 January 2021
Orbit: 901 x 908 km, 67.1° (Epoch: 08 March)

Event Time Altitude Azimuth Distance (km) Brightness Sun altitude
Rises 17:55:57 0° 238° (WSW) 3,522 7.4 -13.8°
Reaches altitude 10° 17:58:41 10° 247° (WSW) 2,585 6.6 -14.3°
Maximum altitude 18:04:07 35° 312° (NW) 1,436 4.2 -15.3°
Drops below altitude 10° 18:09:35 10° 17° (NNE) 2,600 5.0 -16.3°
Enters shadow 18:11:05 - 23° (NNE) 3,102 5.3 -16.5°
